| time (UTC) | temp F | wind direction | speed knots | gust knots | rain 1hr in | rain 24hr in | rain mn in | humidity % | barometer mb |
| 20260902070758 | 77 | 1 | 0.0 | 0.0 | 0.00 | 0.15 | 0.00 | 100 | 1016.4 |
| 20260902070258 | 77 | 1 | 0.0 | 0.0 | 0.00 | 0.15 | 0.00 | 100 | 1016.4 |
| 20260902070103 | 78 | 1 | 0.0 | 0.0 | 0.00 | 0.15 | 0.00 | 100 | 1016.4 |
| 20260902065914 | 78 | 1 | 0.0 | 0.0 | 0.00 | 0.15 | 0.00 | 100 | 1016.4 |
| 20260902065758 | 78 | 1 | 0.0 | 0.0 | 0.00 | 0.15 | 0.00 | 100 | 1016.4 |
| 20260902065258 | 78 | 1 | 0.0 | 0.9 | 0.00 | 0.15 | 0.00 | 100 | 1016.5 |
| 20260902064758 | 77 | 15 | 0.0 | 2.6 | 0.00 | 0.15 | 0.00 | 100 | 1016.4 |
| 20260902064258 | 77 | 35 | 0.0 | 4.3 | 0.00 | 0.15 | 0.00 | 100 | 1016.4 |
| 20260902064124 | 78 | 8 | 1.7 | 3.5 | 0.00 | 0.15 | 0.00 | 100 | 1016.5 |
| 20260902063758 | 78 | 8 | 1.7 | 3.5 | 0.00 | 0.15 | 0.00 | 100 | 1016.5 |
| 20260902063258 | 78 | 21 | 0.0 | 0.0 | 0.00 | 0.15 | 0.00 | 100 | 1016.6 |
| 20260902062758 | 78 | 21 | 0.0 | 1.7 | 0.00 | 0.15 | 0.00 | 100 | 1016.6 |
| 20260902062623 | 78 | 16 | 0.0 | 0.0 | 0.00 | 0.15 | 0.00 | 100 | 1016.7 |
| 20260902062258 | 78 | 16 | 0.0 | 0.0 | 0.00 | 0.15 | 0.00 | 100 | 1016.7 |
| 20260902062122 | 78 | 16 | 0.0 | 0.0 | 0.00 | 0.15 | 0.00 | 100 | 1016.8 |
| 20260902061758 | 78 | 16 | 0.0 | 0.0 | 0.00 | 0.15 | 0.00 | 100 | 1016.8 |
| 20260902061620 | 77 | 16 | 0.0 | 0.0 | 0.00 | 0.15 | 0.00 | 100 | 1016.9 |
| 20260902061538 | 77 | 16 | 0.0 | 0.0 | 0.00 | 0.15 | 0.00 | 100 | 1016.9 |
| 20260902061258 | 77 | 16 | 0.0 | 0.0 | 0.00 | 0.15 | 0.00 | 100 | 1016.9 |
| 20260902061120 | 77 | 16 | 0.0 | 0.0 | 0.00 | 0.15 | 0.00 | 100 | 1016.9 |
| 20260902060758 | 77 | 16 | 0.0 | 0.0 | 0.00 | 0.15 | 0.00 | 100 | 1016.9 |
| 20260902060258 | 78 | 16 | 0.0 | 0.0 | 0.00 | 0.15 | 0.00 | 100 | 1016.9 |
| 20260902055758 | 78 | 16 | 0.0 | 0.0 | 0.00 | 0.15 | 0.00 | 100 | 1016.9 |
| 20260902055258 | 78 | 16 | 0.0 | 0.0 | 0.00 | 0.15 | 0.00 | 100 | 1017.0 |
| 20260902055101 | 78 | 16 | 0.0 | 0.0 | 0.00 | 0.15 | 0.00 | 100 | 1017.0 |
| 20260902054758 | 78 | 16 | 0.0 | 0.0 | 0.00 | 0.15 | 0.00 | 100 | 1017.0 |
| 20260902054445 | 78 | 16 | 0.0 | 0.0 | 0.00 | 0.15 | 0.00 | 100 | 1017.0 |
| 20260902054258 | 78 | 16 | 0.0 | 0.0 | 0.00 | 0.15 | 0.00 | 100 | 1017.1 |
| 20260902053758 | 78 | 16 | 0.0 | 0.0 | 0.00 | 0.15 | 0.00 | 100 | 1017.0 |
| 20260902053541 | 78 | 16 | 0.0 | 0.0 | 0.00 | 0.15 | 0.00 | 100 | 1017.0 |
| 20260902053258 | 78 | 16 | 0.0 | 0.0 | 0.00 | 0.15 | 0.00 | 100 | 1017.0 |
| 20260902053129 | 78 | 16 | 0.0 | 0.0 | 0.00 | 0.15 | 0.00 | 100 | 1017.1 |
| 20260902052758 | 78 | 16 | 0.0 | 0.0 | 0.00 | 0.15 | 0.00 | 100 | 1017.1 |
| 20260902052541 | 78 | 16 | 0.0 | 0.0 | 0.00 | 0.15 | 0.00 | 100 | 1017.1 |
| 20260902052258 | 78 | 16 | 0.0 | 0.0 | 0.00 | 0.15 | 0.00 | 100 | 1017.1 |
| 20260902051758 | 78 | 16 | 0.0 | 0.0 | 0.00 | 0.15 | 0.00 | 100 | 1017.1 |
| 20260902051258 | 78 | 16 | 0.0 | 0.0 | 0.00 | 0.15 | 0.00 | 100 | 1017.1 |
| 20260902051024 | 78 | 16 | 0.0 | 0.0 | 0.00 | 0.15 | 0.00 | 100 | 1017.2 |
| 20260902050758 | 78 | 16 | 0.0 | 0.0 | 0.00 | 0.15 | 0.00 | 100 | 1017.2 |
| 20260902050258 | 78 | 16 | 0.0 | 0.9 | 0.00 | 0.15 | 0.00 | 100 | 1017.3 |
| 20260902045758 | 78 | 355 | 0.0 | 0.0 | 0.00 | 0.15 | 0.00 | 100 | 1017.3 |
| 20260902045613 | 78 | 355 | 0.0 | 0.0 | 0.00 | 0.15 | 0.15 | 100 | 1017.4 |
| 20260902045258 | 78 | 355 | 0.0 | 0.0 | 0.00 | 0.15 | 0.15 | 100 | 1017.4 |
| 20260902045025 | 78 | 355 | 0.0 | 0.0 | 0.00 | 0.15 | 0.15 | 100 | 1017.5 |
| 20260902044758 | 78 | 355 | 0.0 | 0.0 | 0.00 | 0.15 | 0.15 | 100 | 1017.5 |
| 20260902044258 | 78 | 355 | 0.0 | 0.0 | 0.00 | 0.15 | 0.15 | 100 | 1017.4 |
| 20260902043758 | 78 | 355 | 0.0 | 0.9 | 0.00 | 0.15 | 0.15 | 100 | 1017.4 |
| 20260902043455 | 78 | 351 | 0.9 | 0.9 | 0.00 | 0.15 | 0.15 | 100 | 1017.4 |
| 20260902043258 | 78 | 351 | 0.9 | 0.9 | 0.00 | 0.15 | 0.15 | 100 | 1017.4 |
| 20260902043125 | 78 | 264 | 0.0 | 0.0 | 0.00 | 0.15 | 0.15 | 100 | 1017.4 |
| 20260902042758 | 78 | 264 | 0.0 | 0.0 | 0.00 | 0.15 | 0.15 | 100 | 1017.4 |
| 20260902042258 | 79 | 264 | 0.0 | 0.0 | 0.00 | 0.15 | 0.15 | 100 | 1017.5 |
| 20260902041940 | 79 | 264 | 0.0 | 0.0 | 0.00 | 0.15 | 0.15 | 100 | 1017.5 |
| 20260902041758 | 78 | 264 | 0.0 | 0.0 | 0.00 | 0.15 | 0.15 | 100 | 1017.4 |
| 20260902041519 | 79 | 264 | 0.0 | 0.0 | 0.00 | 0.15 | 0.15 | 100 | 1017.4 |
| 20260902041258 | 79 | 264 | 0.0 | 0.0 | 0.00 | 0.15 | 0.15 | 100 | 1017.4 |
| 20260902041038 | 79 | 264 | 0.0 | 0.0 | 0.00 | 0.15 | 0.15 | 100 | 1017.5 |
| 20260902040758 | 79 | 264 | 0.0 | 0.0 | 0.00 | 0.15 | 0.15 | 100 | 1017.5 |
| 20260902040259 | 79 | 264 | 0.0 | 0.0 | 0.00 | 0.15 | 0.15 | 100 | 1017.5 |
| 20260902040032 | 79 | 264 | 0.0 | 0.0 | 0.00 | 0.15 | 0.15 | 100 | 1017.6 |
| 20260902035759 | 79 | 264 | 0.0 | 0.0 | 0.00 | 0.15 | 0.15 | 100 | 1017.6 |
| 20260902035259 | 79 | 264 | 0.0 | 0.0 | 0.00 | 0.15 | 0.15 | 100 | 1017.6 |
| 20260902035037 | 79 | 264 | 0.0 | 0.0 | 0.00 | 0.15 | 0.15 | 100 | 1017.7 |
| 20260902034759 | 79 | 264 | 0.0 | 0.0 | 0.00 | 0.15 | 0.15 | 100 | 1017.7 |
| 20260902034259 | 79 | 264 | 0.0 | 0.0 | 0.00 | 0.15 | 0.15 | 100 | 1017.7 |
| 20260902033923 | 79 | 264 | 0.0 | 0.0 | 0.00 | 0.15 | 0.15 | 100 | 1017.8 |
| 20260902033759 | 79 | 264 | 0.0 | 0.0 | 0.00 | 0.15 | 0.15 | 100 | 1017.8 |
| 20260902033413 | 79 | 264 | 0.0 | 0.0 | 0.00 | 0.15 | 0.15 | 100 | 1017.9 |
| 20260902033259 | 79 | 264 | 0.0 | 0.0 | 0.00 | 0.15 | 0.15 | 100 | 1017.9 |
| 20260902032759 | 79 | 264 | 0.0 | 0.0 | 0.00 | 0.15 | 0.15 | 100 | 1017.9 |
| 20260902032259 | 79 | 264 | 0.0 | 0.0 | 0.00 | 0.15 | 0.15 | 100 | 1018.0 |
| 20260902032014 | 79 | 264 | 0.0 | 0.0 | 0.00 | 0.15 | 0.15 | 100 | 1018.1 |
| 20260902031759 | 79 | 264 | 0.0 | 0.0 | 0.00 | 0.15 | 0.15 | 100 | 1018.1 |
| 20260902031259 | 79 | 264 | 0.0 | 0.0 | 0.00 | 0.15 | 0.15 | 100 | 1018.2 |
| 20260902031129 | 79 | 264 | 0.0 | 0.0 | 0.00 | 0.15 | 0.15 | 100 | 1018.2 |
| 20260902030759 | 79 | 264 | 0.0 | 0.0 | 0.00 | 0.15 | 0.15 | 100 | 1018.2 |
| 20260902030259 | 79 | 264 | 0.0 | 0.0 | 0.00 | 0.15 | 0.15 | 100 | 1018.2 |
| 20260902030042 | 79 | 264 | 0.0 | 0.0 | 0.00 | 0.15 | 0.15 | 100 | 1018.2 |
| 20260902025759 | 79 | 264 | 0.0 | 0.0 | 0.00 | 0.15 | 0.15 | 100 | 1018.2 |
| 20260902025527 | 79 | 264 | 0.0 | 0.0 | 0.00 | 0.15 | 0.15 | 100 | 1018.2 |
| 20260902025259 | 79 | 264 | 0.0 | 0.0 | 0.00 | 0.15 | 0.15 | 100 | 1018.2 |
| 20260902025126 | 79 | 264 | 0.0 | 0.0 | 0.00 | 0.15 | 0.15 | 100 | 1018.2 |
| 20260902024759 | 79 | 264 | 0.0 | 0.0 | 0.00 | 0.15 | 0.15 | 100 | 1018.2 |
| 20260902024259 | 79 | 264 | 0.0 | 0.0 | 0.01 | 0.15 | 0.15 | 100 | 1018.2 |
| 20260902023759 | 79 | 264 | 0.0 | 0.0 | 0.01 | 0.15 | 0.15 | 100 | 1018.2 |
| 20260902023259 | 79 | 264 | 0.0 | 0.0 | 0.01 | 0.15 | 0.15 | 100 | 1018.2 |
| 20260902023131 | 79 | 264 | 0.0 | 0.0 | 0.01 | 0.15 | 0.15 | 100 | 1018.1 |
| 20260902022759 | 79 | 264 | 0.0 | 0.0 | 0.01 | 0.15 | 0.15 | 100 | 1018.1 |
| 20260902022259 | 79 | 264 | 0.0 | 0.0 | 0.01 | 0.15 | 0.15 | 100 | 1018.1 |
| 20260902022126 | 79 | 264 | 0.0 | 0.0 | 0.01 | 0.15 | 0.15 | 100 | 1018.2 |
| 20260902021759 | 79 | 264 | 0.0 | 0.0 | 0.01 | 0.15 | 0.15 | 100 | 1018.2 |
| 20260902021259 | 79 | 264 | 0.0 | 0.0 | 0.01 | 0.15 | 0.15 | 100 | 1018.1 |
| 20260902021136 | 79 | 264 | 0.0 | 0.0 | 0.01 | 0.15 | 0.15 | 100 | 1018.1 |
| 20260902020759 | 79 | 264 | 0.0 | 0.0 | 0.01 | 0.15 | 0.15 | 100 | 1018.1 |
| 20260902020259 | 79 | 264 | 0.0 | 0.0 | 0.01 | 0.15 | 0.15 | 100 | 1018.0 |
| 20260902015759 | 79 | 264 | 0.0 | 0.0 | 0.01 | 0.15 | 0.15 | 100 | 1018.0 |
| 20260902015306 | 79 | 264 | 0.0 | 0.0 | 0.01 | 0.15 | 0.15 | 100 | 1017.9 |
| 20260902015259 | 79 | 264 | 0.0 | 0.0 | 0.01 | 0.15 | 0.15 | 100 | 1017.9 |
| 20260902014759 | 79 | 264 | 0.0 | 0.0 | 0.01 | 0.15 | 0.15 | 100 | 1017.9 |
| 20260902014259 | 79 | 264 | 0.0 | 0.0 | 0.00 | 0.14 | 0.14 | 100 | 1017.8 |
| 20260902014117 | 79 | 264 | 0.0 | 0.0 | 0.00 | 0.14 | 0.14 | 100 | 1017.8 |
| 20260902013759 | 79 | 264 | 0.0 | 0.0 | 0.00 | 0.14 | 0.14 | 100 | 1017.8 |
| 20260902013259 | 79 | 264 | 0.0 | 0.0 | 0.00 | 0.14 | 0.14 | 100 | 1017.8 |
| 20260902013126 | 79 | 264 | 0.0 | 0.0 | 0.00 | 0.14 | 0.14 | 100 | 1017.7 |
| 20260902012759 | 79 | 264 | 0.0 | 0.0 | 0.00 | 0.14 | 0.14 | 100 | 1017.7 |
| 20260902012259 | 79 | 264 | 0.0 | 0.0 | 0.00 | 0.14 | 0.14 | 100 | 1017.7 |
| 20260902011759 | 79 | 264 | 0.0 | 0.0 | 0.00 | 0.14 | 0.14 | 100 | 1017.7 |
| 20260902011259 | 79 | 264 | 0.0 | 0.0 | 0.00 | 0.14 | 0.14 | 100 | 1017.7 |
| 20260902011102 | 79 | 264 | 0.0 | 0.0 | 0.00 | 0.14 | 0.14 | 100 | 1017.8 |
| 20260902010759 | 79 | 264 | 0.0 | 0.0 | 0.00 | 0.14 | 0.14 | 100 | 1017.8 |
| 20260902010259 | 79 | 264 | 0.0 | 0.0 | 0.00 | 0.14 | 0.14 | 100 | 1017.8 |
| 20260902010129 | 79 | 264 | 0.0 | 0.0 | 0.00 | 0.14 | 0.14 | 100 | 1017.8 |
| 20260902005759 | 79 | 264 | 0.0 | 0.0 | 0.00 | 0.14 | 0.14 | 100 | 1017.8 |
| 20260902005259 | 79 | 264 | 0.0 | 0.0 | 0.00 | 0.14 | 0.14 | 100 | 1017.5 |
| 20260902005201 | 80 | 264 | 0.0 | 0.0 | 0.00 | 0.14 | 0.14 | 100 | 1017.6 |
| 20260902004759 | 80 | 264 | 0.0 | 0.0 | 0.00 | 0.14 | 0.14 | 100 | 1017.6 |
| 20260902004259 | 80 | 264 | 0.0 | 0.0 | 0.00 | 0.14 | 0.14 | 100 | 1017.6 |
| 20260902004127 | 80 | 264 | 0.0 | 0.0 | 0.00 | 0.14 | 0.14 | 100 | 1017.6 |
| 20260902003759 | 80 | 264 | 0.0 | 0.0 | 0.00 | 0.14 | 0.14 | 100 | 1017.6 |
| 20260902003259 | 80 | 264 | 0.0 | 0.0 | 0.00 | 0.14 | 0.14 | 100 | 1017.6 |
| 20260902003042 | 80 | 264 | 0.0 | 0.0 | 0.00 | 0.14 | 0.14 | 100 | 1017.8 |
| 20260902002759 | 80 | 264 | 0.0 | 0.0 | 0.00 | 0.14 | 0.14 | 100 | 1017.8 |
| 20260902002259 | 80 | 264 | 0.0 | 0.0 | 0.00 | 0.14 | 0.14 | 100 | 1017.9 |
| 20260902002057 | 80 | 264 | 0.0 | 0.0 | 0.00 | 0.14 | 0.14 | 100 | 1017.9 |
| 20260902001759 | 80 | 264 | 0.0 | 0.0 | 0.00 | 0.14 | 0.14 | 100 | 1017.9 |
| 20260902001259 | 80 | 264 | 0.0 | 0.0 | 0.00 | 0.14 | 0.14 | 100 | 1017.8 |
| 20260902000759 | 80 | 264 | 0.0 | 0.0 | 0.00 | 0.14 | 0.14 | 100 | 1017.8 |
| 20260902000259 | 80 | 264 | 0.0 | 0.0 | 0.00 | 0.14 | 0.14 | 100 | 1017.8 |
| 20260901235800 | 80 | 264 | 0.0 | 0.0 | 0.00 | 0.18 | 0.14 | 100 | 1017.7 |
| 20260901235300 | 80 | 264 | 0.0 | 0.0 | 0.00 | 0.18 | 0.14 | 100 | 1017.7 |
| 20260901234800 | 80 | 264 | 0.0 | 2.6 | 0.00 | 0.18 | 0.14 | 100 | 1017.7 |
| 20260901234300 | 80 | 241 | 0.0 | 2.6 | 0.00 | 0.18 | 0.14 | 100 | 1017.6 |
| 20260901234046 | 80 | 196 | 0.0 | 1.7 | 0.00 | 0.18 | 0.14 | 100 | 1017.4 |
| 20260901233800 | 80 | 196 | 0.0 | 1.7 | 0.00 | 0.18 | 0.14 | 100 | 1017.4 |
| 20260901233300 | 80 | 187 | 0.0 | 1.7 | 0.00 | 0.18 | 0.14 | 100 | 1017.3 |
| 20260901233002 | 80 | 225 | 0.0 | 2.6 | 0.00 | 0.18 | 0.14 | 100 | 1017.4 |
| 20260901232800 | 80 | 225 | 0.0 | 2.6 | 0.00 | 0.18 | 0.14 | 100 | 1017.4 |
| 20260901232300 | 80 | 257 | 1.7 | 1.7 | 0.00 | 0.18 | 0.14 | 100 | 1017.5 |
| 20260901232046 | 80 | 133 | 0.0 | 0.0 | 0.00 | 0.18 | 0.14 | 100 | 1017.5 |
| 20260901231800 | 80 | 133 | 0.0 | 0.0 | 0.00 | 0.18 | 0.14 | 100 | 1017.5 |
| 20260901231300 | 80 | 133 | 0.0 | 0.0 | 0.00 | 0.18 | 0.14 | 100 | 1017.3 |
| 20260901230800 | 80 | 133 | 0.0 | 3.5 | 0.00 | 0.18 | 0.14 | 100 | 1017.1 |
| 20260901230300 | 80 | 158 | 0.9 | 3.5 | 0.00 | 0.18 | 0.14 | 100 | 1017.0 |
| 20260901225953 | 80 | 130 | 0.9 | 4.3 | 0.00 | 0.18 | 0.14 | 100 | 1017.0 |
| 20260901225800 | 80 | 130 | 0.9 | 4.3 | 0.00 | 0.18 | 0.14 | 100 | 1017.0 |
| 20260901225300 | 80 | 102 | 2.6 | 4.3 | 0.00 | 0.18 | 0.14 | 100 | 1016.9 |
| 20260901225127 | 80 | 133 | 3.5 | 5.2 | 0.00 | 0.18 | 0.14 | 100 | 1016.8 |
| 20260901224800 | 80 | 133 | 3.5 | 5.2 | 0.00 | 0.18 | 0.14 | 100 | 1016.8 |
| 20260901224300 | 80 | 149 | 4.3 | 5.2 | 0.00 | 0.18 | 0.14 | 100 | 1016.8 |
| 20260901224112 | 80 | 80 | 1.7 | 4.3 | 0.00 | 0.18 | 0.14 | 100 | 1016.9 |
| 20260901223800 | 80 | 80 | 1.7 | 4.3 | 0.00 | 0.18 | 0.14 | 100 | 1016.9 |
| 20260901223300 | 80 | 90 | 2.6 | 6.1 | 0.00 | 0.18 | 0.14 | 100 | 1016.8 |
| 20260901223131 | 80 | 135 | 1.7 | 6.1 | 0.00 | 0.18 | 0.14 | 100 | 1016.7 |
| 20260901222800 | 80 | 135 | 1.7 | 6.1 | 0.00 | 0.18 | 0.14 | 100 | 1016.7 |
| 20260901222300 | 80 | 98 | 2.6 | 5.2 | 0.00 | 0.18 | 0.14 | 100 | 1016.9 |
| 20260901222130 | 80 | 98 | 4.3 | 8.7 | 0.00 | 0.18 | 0.14 | 100 | 1017.0 |
| 20260901221800 | 80 | 98 | 4.3 | 8.7 | 0.00 | 0.18 | 0.14 | 100 | 1017.0 |
| 20260901221300 | 80 | 94 | 3.5 | 7.8 | 0.00 | 0.18 | 0.14 | 100 | 1017.1 |
| 20260901221130 | 81 | 99 | 3.5 | 11.3 | 0.00 | 0.18 | 0.14 | 100 | 1017.1 |
| 20260901220800 | 81 | 99 | 3.5 | 11.3 | 0.00 | 0.18 | 0.14 | 100 | 1017.1 |
| 20260901220300 | 82 | 106 | 2.6 | 7.8 | 0.00 | 0.46 | 0.14 | 100 | 1017.1 |
| 20260901215800 | 82 | 154 | 1.7 | 4.3 | 0.00 | 0.46 | 0.14 | 100 | 1017.0 |
| 20260901215300 | 82 | 178 | 1.7 | 2.6 | 0.00 | 0.46 | 0.14 | 100 | 1016.9 |
| 20260901214800 | 82 | 140 | 0.9 | 1.7 | 0.00 | 0.46 | 0.14 | 100 | 1016.8 |
| 20260901214300 | 82 | 151 | 0.9 | 1.7 | 0.00 | 0.46 | 0.14 | 100 | 1017.0 |
| 20260901214013 | 82 | 144 | 0.9 | 3.5 | 0.00 | 0.46 | 0.14 | 100 | 1017.1 |
| 20260901213800 | 82 | 144 | 0.9 | 3.5 | 0.00 | 0.46 | 0.14 | 100 | 1017.1 |
| 20260901213300 | 82 | 123 | 2.6 | 3.5 | 0.00 | 0.46 | 0.14 | 100 | 1017.2 |
| 20260901212800 | 82 | 139 | 1.7 | 2.6 | 0.00 | 0.46 | 0.14 | 100 | 1017.3 |
| 20260901212300 | 82 | 77 | 1.7 | 4.3 | 0.00 | 0.46 | 0.14 | 100 | 1017.1 |
| 20260901211800 | 82 | 106 | 2.6 | 5.2 | 0.00 | 0.46 | 0.14 | 100 | 1016.9 |
| 20260901211300 | 83 | 112 | 0.9 | 3.5 | 0.00 | 0.46 | 0.14 | 100 | 1016.7 |
| 20260901210800 | 82 | 135 | 2.6 | 5.2 | 0.00 | 0.46 | 0.14 | 100 | 1016.7 |
| 20260901210300 | 83 | 80 | 1.7 | 4.3 | 0.00 | 0.46 | 0.14 | 100 | 1016.4 |
| 20260901205800 | 83 | 97 | 2.6 | 7.0 | 0.00 | 1.24 | 0.14 | 100 | 1016.3 |
| 20260901205300 | 83 | 102 | 6.1 | 7.8 | 0.00 | 1.24 | 0.14 | 100 | 1016.2 |
| 20260901204800 | 84 | 82 | 0.0 | 0.0 | 0.00 | 1.24 | 0.14 | 100 | 1016.4 |
| 20260901204300 | 84 | 82 | 0.0 | 0.0 | 0.01 | 1.24 | 0.14 | 100 | 1016.4 |
| 20260901203800 | 84 | 82 | 0.0 | 3.5 | 0.03 | 1.24 | 0.14 | 100 | 1016.5 |
| 20260901203622 | 84 | 98 | 1.7 | 3.5 | 0.05 | 1.24 | 0.14 | 100 | 1016.4 |
| 20260901203300 | 84 | 98 | 1.7 | 3.5 | 0.05 | 1.24 | 0.14 | 100 | 1016.4 |
| 20260901202800 | 83 | 50 | 0.0 | 5.2 | 0.08 | 1.24 | 0.14 | 100 | 1016.4 |
| 20260901202300 | 83 | 70 | 0.0 | 0.0 | 0.10 | 1.24 | 0.14 | 100 | 1016.3 |
| 20260901201800 | 83 | 70 | 0.0 | 0.0 | 0.12 | 1.24 | 0.14 | 100 | 1016.3 |
| 20260901201300 | 84 | 70 | 0.0 | 0.0 | 0.14 | 1.24 | 0.14 | 100 | 1016.5 |
| 20260901200800 | 84 | 70 | 0.0 | 0.0 | 0.14 | 1.24 | 0.14 | 100 | 1016.5 |
| 20260901200301 | 83 | 70 | 0.0 | 2.6 | 0.14 | 1.24 | 0.14 | 100 | 1016.5 |
| 20260901195801 | 83 | 120 | 1.7 | 3.5 | 0.14 | 1.24 | 0.14 | 100 | 1016.7 |
| 20260901195301 | 83 | 98 | 2.6 | 6.1 | 0.14 | 1.24 | 0.14 | 100 | 1016.8 |
| 20260901194801 | 82 | 90 | 3.5 | 6.1 | 0.14 | 1.24 | 0.14 | 100 | 1016.8 |
| 20260901194301 | 82 | 71 | 5.2 | 9.6 | 0.13 | 1.23 | 0.13 | 100 | 1016.8 |
| 20260901193801 | 81 | 78 | 6.1 | 9.6 | 0.11 | 1.21 | 0.11 | 100 | 1016.7 |
| 20260901193301 | 82 | 45 | 6.1 | 13.9 | 0.09 | 1.19 | 0.09 | 100 | 1016.9 |
| 20260901192801 | 83 | 95 | 6.1 | 9.6 | 0.06 | 1.16 | 0.06 | 100 | 1017.1 |
| 20260901192301 | 84 | 33 | 4.3 | 14.8 | 0.04 | 1.14 | 0.04 | 100 | 1017.0 |
| 20260901191801 | 83 | 39 | 9.6 | 13.0 | 0.02 | 1.12 | 0.02 | 100 | 1017.0 |
| 20260901191301 | 89 | 67 | 12.2 | 15.6 | 0.00 | 1.10 | 0.00 | 100 | 1016.8 |
| 20260901190801 | 93 | 73 | 3.5 | 17.4 | 0.00 | 1.10 | 0.00 | 100 | 1016.8 |
| 20260901190301 | 96 | 30 | 1.7 | 6.1 | 0.00 | 1.10 | 0.00 | 100 | 1016.7 |
| 20260901190046 | 96 | 26 | 4.3 | 6.1 | 0.00 | 1.10 | 0.00 | 100 | 1016.7 |
| 20260901185801 | 96 | 26 | 4.3 | 6.1 | 0.00 | 1.10 | 0.00 | 100 | 1016.7 |
| 20260901185301 | 96 | 77 | 1.7 | 7.0 | 0.00 | 1.10 | 0.00 | 100 | 1016.7 |
| 20260901184801 | 96 | 28 | 1.7 | 5.2 | 0.00 | 1.10 | 0.00 | 100 | 1016.8 |
| 20260901184301 | 95 | 1 | 0.0 | 7.8 | 0.00 | 1.10 | 0.00 | 100 | 1017.0 |
| 20260901183801 | 95 | 80 | 2.6 | 5.2 | 0.00 | 1.10 | 0.00 | 100 | 1017.0 |
| 20260901183301 | 95 | 59 | 0.0 | 4.3 | 0.00 | 1.10 | 0.00 | 100 | 1017.1 |
| 20260901182801 | 96 | 30 | 2.6 | 7.8 | 0.00 | 1.10 | 0.00 | 100 | 1017.0 |
| 20260901182305 | 98 | 9 | 3.5 | 6.1 | 0.00 | 1.10 | 0.00 | 100 | 1017.1 |
| 20260901182014 | 101 | 75 | 0.9 | 8.7 | 0.00 | 1.10 | 0.00 | 100 | 1017.2 |
| 20260901181801 | 101 | 75 | 0.9 | 8.7 | 0.00 | 1.10 | 0.00 | 100 | 1017.2 |
| 20260901181301 | 103 | 357 | 5.2 | 9.6 | 0.00 | 1.10 | 0.00 | 100 | 1017.3 |
| 20260901180801 | 104 | 23 | 7.8 | 7.8 | 0.00 | 1.10 | 0.00 | 100 | 1017.3 |
| 20260901180301 | 110 | 21 | 0.0 | 9.6 | 0.00 | 1.10 | 0.00 | 100 | 1017.4 |
| 20260901175801 | 104 | 9 | 4.3 | 7.8 | 0.00 | 1.10 | 0.00 | 100 | 1017.4 |
| 20260901175301 | 104 | 7 | 2.6 | 8.7 | 0.00 | 1.10 | 0.00 | 100 | 1017.5 |
| 20260901174801 | 105 | 39 | 1.7 | 5.2 | 0.00 | 1.10 | 0.00 | 100 | 1017.6 |
| 20260901174301 | 107 | 28 | 3.5 | 7.8 | 0.00 | 1.10 | 0.00 | 100 | 1017.7 |
| 20260901173801 | 107 | 28 | 3.5 | 7.8 | 0.00 | 1.10 | 0.00 | 100 | 1017.7 |
| 20260901173301 | 115 | 334 | 2.6 | 6.1 | 0.00 | 1.10 | 0.00 | 100 | 1017.7 |
| 20260901172801 | 113 | 348 | 0.9 | 5.2 | 0.00 | 1.10 | 0.00 | 100 | 1017.8 |
| 20260901172304 | 112 | 1 | 2.6 | 4.3 | 0.00 | 1.10 | 0.00 | 100 | 1017.8 |
| 20260901172129 | 106 | 36 | 2.6 | 7.8 | 0.00 | 1.10 | 0.00 | 100 | 1017.9 |
| 20260901171801 | 106 | 36 | 2.6 | 7.8 | 0.00 | 1.10 | 0.00 | 100 | 1017.9 |
| 20260901171301 | 121 | 338 | 7.0 | 7.8 | 0.00 | 1.10 | 0.00 | 100 | 1018.0 |
| 20260901171127 | 119 | 56 | 3.5 | 6.1 | 0.00 | 1.10 | 0.00 | 100 | 1018.0 |
| 20260901170801 | 119 | 56 | 3.5 | 6.1 | 0.00 | 1.10 | 0.00 | 100 | 1018.0 |
| 20260901170301 | 117 | 277 | 0.9 | 6.1 | 0.00 | 1.10 | 0.00 | 100 | 1018.0 |
| 20260901165801 | 108 | 358 | 5.2 | 8.7 | 0.00 | 1.10 | 0.00 | 100 | 1018.1 |
| 20260901165301 | 116 | 344 | 7.8 | 7.8 | 0.00 | 1.10 | 0.00 | 100 | 1018.1 |
| 20260901164801 | 119 | 82 | 1.7 | 7.0 | 0.00 | 1.10 | 0.00 | 100 | 1018.2 |
| 20260901164301 | 118 | 7 | 5.2 | 9.6 | 0.00 | 1.10 | 0.00 | 100 | 1018.3 |
| 20260901163801 | 118 | 50 | 5.2 | 10.4 | 0.00 | 1.10 | 0.00 | 100 | 1018.3 |
| 20260901163301 | 116 | 56 | 0.9 | 7.0 | 0.00 | 1.10 | 0.00 | 100 | 1018.4 |
| 20260901162937 | 114 | 56 | 4.3 | 5.2 | 0.00 | 1.10 | 0.00 | 100 | 1018.4 |
| 20260901162801 | 114 | 56 | 4.3 | 5.2 | 0.00 | 1.10 | 0.00 | 100 | 1018.4 |
| 20260901162305 | 111 | 142 | 1.7 | 5.2 | 0.00 | 1.10 | 0.00 | 100 | 1018.5 |
| 20260901161801 | 113 | 85 | 2.6 | 6.1 | 0.00 | 1.10 | 0.00 | 100 | 1018.5 |
| 20260901161302 | 112 | 50 | 3.5 | 7.8 | 0.00 | 1.10 | 0.00 | 100 | 1018.6 |
| 20260901160802 | 109 | 22 | 2.6 | 7.8 | 0.00 | 1.10 | 0.00 | 100 | 1018.6 |
| 20260901160302 | 100 | 16 | 4.3 | 7.8 | 0.00 | 1.10 | 0.00 | 100 | 1018.6 |
| 20260901155802 | 96 | 52 | 0.0 | 3.5 | 0.00 | 1.10 | 0.00 | 100 | 1018.7 |
| 20260901155302 | 95 | 8 | 1.7 | 7.0 | 0.00 | 1.10 | 0.00 | 100 | 1018.8 |
| 20260901154802 | 100 | 23 | 4.3 | 6.1 | 0.00 | 1.10 | 0.00 | 100 | 1018.8 |
| 20260901154302 | 97 | 358 | 5.2 | 7.0 | 0.00 | 1.10 | 0.00 | 100 | 1018.8 |
| 20260901153802 | 97 | 50 | 1.7 | 6.1 | 0.00 | 1.10 | 0.00 | 100 | 1018.8 |
| 20260901153302 | 103 | 358 | 4.3 | 6.1 | 0.00 | 1.10 | 0.00 | 100 | 1018.7 |
| 20260901153130 | 98 | 18 | 5.2 | 5.2 | 0.00 | 1.10 | 0.00 | 100 | 1018.8 |
| 20260901152802 | 98 | 18 | 5.2 | 5.2 | 0.00 | 1.10 | 0.00 | 100 | 1018.8 |
| 20260901152305 | 95 | 32 | 4.3 | 7.0 | 0.00 | 1.10 | 0.00 | 100 | 1018.7 |
| 20260901152027 | 98 | 54 | 4.3 | 5.2 | 0.00 | 1.10 | 0.00 | 100 | 1018.8 |
| 20260901151802 | 98 | 54 | 4.3 | 5.2 | 0.00 | 1.10 | 0.00 | 100 | 1018.8 |
| 20260901151302 | 96 | 358 | 5.2 | 7.0 | 0.00 | 1.10 | 0.00 | 100 | 1018.9 |
| 20260901150959 | 94 | 343 | 5.2 | 5.2 | 0.00 | 1.10 | 0.00 | 100 | 1018.9 |
| 20260901150802 | 94 | 343 | 5.2 | 5.2 | 0.00 | 1.10 | 0.00 | 100 | 1018.9 |
| 20260901150302 | 93 | 37 | 0.9 | 4.3 | 0.00 | 1.10 | 0.00 | 100 | 1018.8 |
| 20260901145802 | 92 | 22 | 3.5 | 6.1 | 0.00 | 1.10 | 0.00 | 100 | 1018.8 |
| 20260901145306 | 91 | 21 | 4.3 | 4.3 | 0.00 | 1.10 | 0.00 | 100 | 1018.8 |
| 20260901145026 | 90 | 57 | 0.0 | 4.3 | 0.00 | 1.10 | 0.00 | 100 | 1018.8 |
| 20260901144802 | 90 | 57 | 0.0 | 4.3 | 0.00 | 1.10 | 0.00 | 100 | 1018.8 |
| 20260901144302 | 90 | 7 | 0.0 | 2.6 | 0.00 | 1.10 | 0.00 | 100 | 1018.8 |
| 20260901143802 | 89 | 23 | 2.6 | 5.2 | 0.00 | 1.10 | 0.00 | 100 | 1018.8 |
| 20260901143302 | 89 | 80 | 0.0 | 2.6 | 0.00 | 1.10 | 0.00 | 100 | 1018.6 |
| 20260901142802 | 87 | 42 | 0.9 | 5.2 | 0.00 | 1.10 | 0.00 | 100 | 1018.5 |
| 20260901142305 | 90 | 53 | 3.5 | 6.1 | 0.00 | 1.10 | 0.00 | 100 | 1018.5 |
| 20260901142129 | 90 | 64 | 3.5 | 7.8 | 0.00 | 1.10 | 0.00 | 100 | 1018.5 |
| 20260901141802 | 90 | 64 | 3.5 | 7.8 | 0.00 | 1.10 | 0.00 | 100 | 1018.5 |
| 20260901141302 | 90 | 116 | 3.5 | 7.0 | 0.00 | 1.10 | 0.00 | 100 | 1018.5 |
| 20260901140802 | 89 | 67 | 3.5 | 7.0 | 0.00 | 1.10 | 0.00 | 100 | 1018.5 |
| 20260901140302 | 88 | 118 | 1.7 | 5.2 | 0.00 | 1.10 | 0.00 | 100 | 1018.4 |
| 20260901140012 | 83 | 61 | 3.5 | 5.2 | 0.00 | 1.10 | 0.00 | 100 | 1018.3 |
| 20260901135802 | 83 | 61 | 3.5 | 5.2 | 0.00 | 1.10 | 0.00 | 100 | 1018.3 |
| 20260901135305 | 84 | 101 | 2.6 | 5.2 | 0.00 | 1.10 | 0.00 | 100 | 1018.4 |
| 20260901135043 | 87 | 104 | 3.5 | 5.2 | 0.00 | 1.10 | 0.00 | 100 | 1018.4 |
| 20260901134802 | 87 | 104 | 3.5 | 5.2 | 0.00 | 1.10 | 0.00 | 100 | 1018.4 |
| 20260901134302 | 87 | 53 | 3.5 | 4.3 | 0.00 | 1.10 | 0.00 | 100 | 1018.4 |
| 20260901133802 | 86 | 77 | 3.5 | 4.3 | 0.00 | 1.10 | 0.00 | 100 | 1018.3 |
| 20260901133302 | 87 | 95 | 1.7 | 6.1 | 0.00 | 1.10 | 0.00 | 100 | 1018.2 |
| 20260901133103 | 87 | 40 | 1.7 | 5.2 | 0.00 | 1.10 | 0.00 | 100 | 1018.0 |
| 20260901132802 | 87 | 40 | 1.7 | 5.2 | 0.00 | 1.10 | 0.00 | 100 | 1018.0 |
| 20260901132306 | 85 | 50 | 3.5 | 4.3 | 0.00 | 1.10 | 0.00 | 100 | 1018.1 |
| 20260901131802 | 83 | 85 | 0.9 | 5.2 | 0.00 | 1.10 | 0.00 | 100 | 1018.1 |
| 20260901131302 | 85 | 53 | 2.6 | 3.5 | 0.00 | 1.10 | 0.00 | 100 | 1018.0 |
| 20260901131055 | 81 | 53 | 1.7 | 4.3 | 0.00 | 1.10 | 0.00 | 100 | 1017.9 |
| 20260901130802 | 81 | 53 | 1.7 | 4.3 | 0.00 | 1.10 | 0.00 | 100 | 1017.9 |
| 20260901130302 | 81 | 71 | 2.6 | 4.3 | 0.00 | 1.10 | 0.00 | 100 | 1017.9 |
| 20260901130043 | 82 | 53 | 0.9 | 4.3 | 0.00 | 1.10 | 0.00 | 100 | 1017.9 |
| 20260901125802 | 82 | 53 | 0.9 | 4.3 | 0.00 | 1.10 | 0.00 | 100 | 1017.9 |
| 20260901125308 | 82 | 30 | 0.0 | 3.5 | 0.00 | 1.10 | 0.00 | 100 | 1017.9 |
| 20260901124802 | 81 | 26 | 0.0 | 2.6 | 0.00 | 1.10 | 0.00 | 100 | 1018.0 |
| 20260901124302 | 81 | 21 | 1.7 | 1.7 | 0.00 | 1.10 | 0.00 | 100 | 1018.0 |
| 20260901123921 | 79 | 35 | 0.0 | 2.6 | 0.00 | 1.10 | 0.00 | 100 | 1018.0 |
| 20260901123802 | 79 | 35 | 0.0 | 2.6 | 0.00 | 1.10 | 0.00 | 100 | 1018.0 |
| 20260901123302 | 79 | 23 | 0.0 | 3.5 | 0.00 | 1.10 | 0.00 | 100 | 1017.9 |
| 20260901122802 | 78 | 29 | 0.0 | 0.0 | 0.00 | 1.10 | 0.00 | 100 | 1017.8 |
| 20260901122306 | 78 | 29 | 0.0 | 1.7 | 0.00 | 1.10 | 0.00 | 100 | 1017.8 |
| 20260901121802 | 78 | 28 | 0.0 | 1.7 | 0.00 | 1.10 | 0.00 | 100 | 1017.8 |
| 20260901121302 | 78 | 36 | 0.9 | 3.5 | 0.00 | 1.10 | 0.00 | 100 | 1017.8 |
| 20260901121015 | 77 | 29 | 0.0 | 4.3 | 0.00 | 1.10 | 0.00 | 100 | 1017.7 |
| 20260901120803 | 77 | 29 | 0.0 | 4.3 | 0.00 | 1.10 | 0.00 | 100 | 1017.7 |
| 20260901120303 | 77 | 15 | 0.0 | 2.6 | 0.00 | 1.10 | 0.00 | 100 | 1017.7 |
| 20260901115803 | 77 | 8 | 0.0 | 3.5 | 0.00 | 1.10 | 0.00 | 100 | 1017.7 |
| 20260901115306 | 77 | 52 | 0.0 | 3.5 | 0.00 | 1.10 | 0.00 | 100 | 1017.7 |
| 20260901114803 | 77 | 7 | 0.0 | 0.0 | 0.00 | 1.10 | 0.00 | 100 | 1017.6 |
| 20260901114303 | 77 | 7 | 0.0 | 0.9 | 0.00 | 1.10 | 0.00 | 100 | 1017.5 |
| 20260901113803 | 76 | 7 | 0.9 | 0.9 | 0.00 | 1.10 | 0.00 | 100 | 1017.5 |
| 20260901113303 | 76 | 54 | 0.9 | 1.7 | 0.00 | 1.10 | 0.00 | 100 | 1017.4 |
| 20260901112844 | 76 | 61 | 0.0 | 0.9 | 0.00 | 1.10 | 0.00 | 100 | 1017.4 |
| 20260901112803 | 76 | 61 | 0.0 | 0.9 | 0.00 | 1.10 | 0.00 | 100 | 1017.4 |
| 20260901112306 | 76 | 45 | 0.0 | 0.0 | 0.00 | 1.10 | 0.00 | 100 | 1017.3 |
| 20260901112055 | 76 | 45 | 0.0 | 0.0 | 0.00 | 1.10 | 0.00 | 100 | 1017.3 |
| 20260901111803 | 76 | 45 | 0.0 | 0.0 | 0.00 | 1.10 | 0.00 | 100 | 1017.3 |
| 20260901111303 | 76 | 45 | 0.0 | 0.0 | 0.00 | 1.10 | 0.00 | 100 | 1017.2 |
| 20260901110803 | 76 | 45 | 0.0 | 0.0 | 0.00 | 1.10 | 0.00 | 100 | 1017.2 |
| 20260901110303 | 76 | 45 | 0.0 | 0.0 | 0.00 | 1.10 | 0.00 | 100 | 1017.2 |
| 20260901105803 | 76 | 45 | 0.0 | 0.0 | 0.00 | 1.10 | 0.00 | 100 | 1017.1 |
| 20260901105305 | 76 | 45 | 0.0 | 0.0 | 0.00 | 1.10 | 0.00 | 100 | 1017.2 |
| 20260901105054 | 76 | 45 | 0.0 | 0.0 | 0.00 | 1.10 | 0.00 | 100 | 1017.2 |
| 20260901104803 | 76 | 45 | 0.0 | 0.0 | 0.00 | 1.10 | 0.00 | 100 | 1017.2 |
| 20260901104303 | 76 | 45 | 0.0 | 0.0 | 0.00 | 1.10 | 0.00 | 100 | 1017.1 |
| 20260901103803 | 76 | 45 | 0.0 | 0.0 | 0.00 | 1.10 | 0.00 | 100 | 1017.1 |
| 20260901103303 | 76 | 45 | 0.0 | 0.0 | 0.00 | 1.10 | 0.00 | 100 | 1017.1 |
| 20260901103215 | 76 | 45 | 0.0 | 0.0 | 0.00 | 1.10 | 0.00 | 100 | 1017.0 |
| 20260901102847 | 76 | 45 | 0.0 | 0.0 | 0.00 | 1.10 | 0.00 | 100 | 1017.0 |
| 20260901102803 | 76 | 45 | 0.0 | 0.0 | 0.00 | 1.10 | 0.00 | 100 | 1017.0 |
| 20260901102306 | 76 | 45 | 0.0 | 0.0 | 0.00 | 1.10 | 0.00 | 100 | 1017.0 |
| 20260901101803 | 76 | 45 | 0.0 | 0.0 | 0.00 | 1.10 | 0.00 | 100 | 1017.0 |
| 20260901101303 | 76 | 45 | 0.0 | 0.0 | 0.00 | 1.10 | 0.00 | 100 | 1017.0 |
| 20260901100803 | 76 | 45 | 0.0 | 0.0 | 0.00 | 1.10 | 0.00 | 100 | 1017.0 |
| 20260901100303 | 76 | 45 | 0.0 | 0.0 | 0.00 | 1.10 | 0.00 | 100 | 1017.0 |
| 20260901095803 | 76 | 45 | 0.0 | 0.0 | 0.00 | 1.10 | 0.00 | 100 | 1017.0 |
| 20260901095306 | 76 | 45 | 0.0 | 0.9 | 0.00 | 1.10 | 0.00 | 100 | 1016.9 |
| 20260901095114 | 76 | 45 | 0.0 | 1.7 | 0.00 | 1.10 | 0.00 | 100 | 1016.9 |
| 20260901094803 | 76 | 45 | 0.0 | 1.7 | 0.00 | 1.10 | 0.00 | 100 | 1016.9 |
| 20260901094303 | 76 | 67 | 0.0 | 0.0 | 0.00 | 1.10 | 0.00 | 100 | 1016.9 |
| 20260901093803 | 76 | 67 | 0.0 | 0.0 | 0.00 | 1.10 | 0.00 | 100 | 1016.9 |
| 20260901093303 | 76 | 67 | 0.0 | 0.0 | 0.00 | 1.10 | 0.00 | 100 | 1016.9 |
| 20260901093055 | 76 | 67 | 0.0 | 0.0 | 0.00 | 1.10 | 0.00 | 100 | 1016.8 |
| 20260901092803 | 76 | 67 | 0.0 | 0.0 | 0.00 | 1.10 | 0.00 | 100 | 1016.8 |
| 20260901092305 | 76 | 67 | 0.0 | 0.0 | 0.00 | 1.10 | 0.00 | 100 | 1016.9 |
| 20260901091803 | 76 | 67 | 0.0 | 0.0 | 0.00 | 1.10 | 0.00 | 100 | 1016.8 |
| 20260901091303 | 76 | 67 | 0.0 | 0.0 | 0.00 | 1.10 | 0.00 | 100 | 1016.8 |
| 20260901090803 | 76 | 67 | 0.0 | 0.0 | 0.00 | 1.10 | 0.00 | 100 | 1016.8 |
| 20260901090303 | 76 | 67 | 0.0 | 0.0 | 0.00 | 1.10 | 0.00 | 100 | 1016.8 |
| 20260901085803 | 76 | 67 | 0.0 | 0.0 | 0.00 | 1.10 | 0.00 | 100 | 1016.8 |
| 20260901085305 | 76 | 67 | 0.0 | 0.0 | 0.00 | 1.10 | 0.00 | 100 | 1016.7 |
| 20260901085029 | 76 | 67 | 0.0 | 0.0 | 0.00 | 1.10 | 0.00 | 100 | 1016.8 |
| 20260901084803 | 76 | 67 | 0.0 | 0.0 | 0.00 | 1.10 | 0.00 | 100 | 1016.8 |
| 20260901084303 | 76 | 67 | 0.0 | 0.0 | 0.00 | 1.10 | 0.00 | 100 | 1016.7 |
| 20260901083803 | 76 | 67 | 0.0 | 0.0 | 0.00 | 1.10 | 0.00 | 100 | 1016.6 |
| 20260901083303 | 76 | 67 | 0.0 | 0.0 | 0.00 | 1.10 | 0.00 | 100 | 1016.7 |
| 20260901082803 | 76 | 67 | 0.0 | 0.0 | 0.00 | 1.10 | 0.00 | 100 | 1016.7 |
| 20260901082306 | 76 | 67 | 0.0 | 0.0 | 0.00 | 1.10 | 0.00 | 100 | 1016.8 |
| 20260901081803 | 76 | 67 | 0.0 | 0.0 | 0.00 | 1.10 | 0.00 | 100 | 1016.8 |
| 20260901081304 | 77 | 67 | 0.0 | 0.0 | 0.00 | 1.10 | 0.00 | 100 | 1016.7 |
| 20260901081038 | 76 | 67 | 0.0 | 0.0 | 0.00 | 1.10 | 0.00 | 100 | 1016.7 |
| 20260901080804 | 76 | 67 | 0.0 | 0.0 | 0.00 | 1.10 | 0.00 | 100 | 1016.7 |
| 20260901080633 | 77 | 67 | 0.0 | 0.9 | 0.00 | 1.10 | 0.00 | 100 | 1016.7 |
| 20260901080304 | 77 | 67 | 0.0 | 0.9 | 0.00 | 1.10 | 0.00 | 100 | 1016.7 |
| 20260901075804 | 77 | 56 | 0.9 | 0.9 | 0.00 | 1.10 | 0.00 | 100 | 1016.7 |
| 20260901075307 | 77 | 45 | 0.0 | 0.0 | 0.00 | 1.10 | 0.00 | 100 | 1016.7 |
| 20260901075035 | 77 | 45 | 0.0 | 0.0 | 0.00 | 1.10 | 0.00 | 100 | 1016.6 |
| 20260901074804 | 77 | 45 | 0.0 | 0.0 | 0.00 | 1.10 | 0.00 | 100 | 1016.6 |
| 20260901074304 | 76 | 45 | 0.0 | 0.0 | 0.00 | 1.10 | 0.00 | 100 | 1016.6 |
| 20260901073804 | 77 | 45 | 0.0 | 0.0 | 0.00 | 1.10 | 0.00 | 100 | 1016.7 |
| 20260901073304 | 77 | 45 | 0.0 | 1.7 | 0.00 | 1.10 | 0.00 | 100 | 1016.7 |
| 20260901072804 | 77 | 54 | 1.7 | 2.6 | 0.00 | 1.10 | 0.00 | 100 | 1016.7 |
| 20260901072308 | 77 | 40 | 0.0 | 0.9 | 0.00 | 1.10 | 0.00 | 100 | 1016.8 |
| 20260901071804 | 77 | 32 | 0.0 | 0.0 | 0.00 | 1.10 | 0.00 | 100 | 1016.7 |
| 20260901071304 | 77 | 32 | 0.0 | 0.0 | 0.00 | 1.10 | 0.00 | 100 | 1016.8 |
| 20260901071034 | 77 | 32 | 0.0 | 0.0 | 0.00 | 1.10 | 0.00 | 100 | 1016.9 |